Regional Weather Roundup
Issued by NWS Portland, ME

Home | Current Version | Previous Version | Text Only | Print | Product List | Glossary On
Versions: 1 2 3 4 5 6 7 8 9 10 11 12 13 14 15 16 17 18 19 20 21 22 23 24 25 26 27 28 29 30 31 32 33 34 35 36 37 38 39 40 41 42 43 44 45 46 47 48 49 50
000
ASUS41 KGYX 111210
RWRGYX
WEATHER ROUNDUP FOR MAINE AND NEW HAMPSHIRE
NATIONAL WEATHER SERVICE GRAY ME
700 AM EST SUN DEC 11 2016

MEZ002-005-006-010-012-015-018-020-021-024-026-027-029-111300-
MAINE

CITY           SKY/WX    TMP DP  RH WIND       PRES   REMARKS
PORTLAND       CLEAR      9   4  80 W5        30.48R
6HR MIN TEMP:   8; 6HR MAX TEMP:  11;

SANFORD          N/A      2  -1  88 CALM      30.47R
BAR HARBOR     CLEAR     14   9  80 W5        30.45R
WISCASSET      CLEAR      6   1  80 CALM      30.49R
6HR MIN TEMP:   6; 6HR MAX TEMP:   9;

ROCKLAND       CLEAR      7   4  87 CALM      30.47R
FRYEBURG       CLEAR     -3  -8  79 CALM      30.44R
6HR MIN TEMP:  -4; 6HR MAX TEMP:   0;

LEWISTONAUBURN CLEAR     -1  -5  82 CALM      30.46R
AUGUSTA        CLEAR     11   5  77 CALM      30.45R
6HR MIN TEMP:  10; 6HR MAX TEMP:  15;

WATERVILLE     CLEAR      7   4  87 CALM      30.41R
BANGOR         PTCLDY     9   5  84 W7        30.44R
6HR MIN TEMP:   9; 6HR MAX TEMP:  12;

GREENVILLE       N/A      7   5  91 CALM      30.28R
6HR MIN TEMP:   4; 6HR MAX TEMP:   9;

MILLINOCKET    CLEAR      4   1  88 CALM      30.39R
6HR MIN TEMP:   4; 6HR MAX TEMP:  13;

HOULTON        CLEAR      3   0  87 CALM      30.33R
6HR MIN TEMP:   2; 6HR MAX TEMP:   7;

PRESQUE ISLE   CLEAR     -7 -11  83 CALM      30.33R
6HR MIN TEMP:  -7; 6HR MAX TEMP:   1;

FRENCHVILLE    CLEAR      5   0  79 W9        30.25S
6HR MIN TEMP:   5; 6HR MAX TEMP:   8;

CARIBOU        CLEAR      2  -3  80 W5        30.30R
6HR MIN TEMP:   0; 6HR MAX TEMP:   6;

$$

NHZ002-005-008-009-011-012-014-111300-
NEW HAMPSHIRE

CITY           SKY/WX    TMP DP  RH WIND       PRES   REMARKS
PORTSMOUTH     PTCLDY    13   6  75 W2        30.47S
ROCHESTER      PTCLDY     9   3  77 CALM      30.45R
6HR MIN TEMP:   7; 6HR MAX TEMP:  15;

NASHUA         CLEAR      6   2  83 CALM        N/A
MANCHESTER     CLEAR     11   5  77 CALM      30.47R
6HR MIN TEMP:  10; 6HR MAX TEMP:  13;

CONCORD        CLEAR      5  -2  72 CALM      30.48R
6HR MIN TEMP:   4; 6HR MAX TEMP:   8;

PLYMOUTH         N/A     -3  -6  86 CALM      30.47R
BERLIN         PTCLDY    -3 -10  72 CALM      30.37R
6HR MIN TEMP:  -7; 6HR MAX TEMP:   2; 6HR PCP: TRACE;

WHITEFIELD     CLEAR     -3  -9  75 CALM      30.39S
6HR MIN TEMP:  -3; 6HR MAX TEMP:   4;

JAFFREY        CLEAR      6   1  80 S3        30.42R
6HR MIN TEMP:   4; 6HR MAX TEMP:  10;

KEENE          CLEAR      3   0  87 S3        30.49R
LEBANON        CLEAR      2  -3  80 S3        30.46R
6HR MIN TEMP:   0; 6HR MAX TEMP:   5;

MT WASHINGTON  FOG       -6  -6 100 W43G49      N/A  VSB 1/8 WCI -38
6HR MIN TEMP:  -9; 6HR MAX TEMP:  -6; 6HR PCP:  0.01;

$$

VTZ005-007-008-111300-
VERMONT

CITY           SKY/WX    TMP DP  RH WIND       PRES   REMARKS
ST JOHNSBURY     N/A      0  -5  79 MISG      30.44R
MONTPELIER     CLOUDY     3   0  87 CALM      30.42R
BURLINGTON     MOCLDY    15  10  80 E3        30.44R
$$

MAZ007-012-024-CTZ003-RIZ002-NYZ038-NYZ072-111300-
SOUTHERN NEW ENGLAND AND NY

CITY           SKY/WX    TMP DP  RH WIND       PRES   REMARKS
BOSTON         PTCLDY    21  11  65 N5        30.52R
WORCESTER      CLEAR     17   9  70 W8        30.43R
NANTUCKET      CLEAR     25  12  58 NW6       30.51R
PROVIDENCE     PTCLDY    15  11  83 CALM      30.52R
HARTFORD       PTCLDY    11   6  81 CALM      30.51R
ALBANY         PTCLDY    15  11  83 S3        30.48R
NEW YORK CITY  MOCLDY    31  15  52 NW6       30.53R
$$

ANZ081-ANZ082-ANZ150-NHZ014-MEZ023>029-111300-
COASTAL MARINE OBSERVATIONS

STATION/POSITION TIME  TEMP    WIND        PRES    WAVE
                       AIR SEA DIR/SP/G            HT/PER
                 (UTC) (F)     (DEG/KT/KT) (MB)    (FT/S)
MOUNT DESERT ROC 1200   24                 1030.9R
MATINICUS ROCK   1100   24     300/ 18/ 20 1030.3R
ISLE OF SHOALS   1100   22     280/ 11/ 12 1031.9R
JEFFREYS LEDGE   1108      50                N/A     3/ 4
CASHES LEDGE BUO 1150   27 49  300/ 12/ 17 1031.2R   2/ 4
GEORGES BANK BUO 1050   35 48              1028.1    8/ 8
$$

.............KEY..............
   WCI - WIND CHILL
   TC  - TEMPERATURE IN CELSIUS
   VSB - VISIBILITY IN MILES
   HX  - HEAT INDEX
   FAIR- INDICATES FEW OR NO CLOUDS BELOW 12,000 FT, WITH NO
         SIGNIFICANT WEATHER AND/OR OBSTRUCTIONS TO VISIBILITY.






USA.gov is the U.S. government's official web portal to all federal, state and local government web resources and services.